WD9U Weather Reports


time (UTC)temp
C
wind
direction
speed
KPH
gust
KPH
rain 1hr
cm
rain 24hr
cm
rain mn
cm
humidity
%
barometer
mb
20260503030711 7 0 0.0 0.0 0.00 0.00 0.00 60 1009.1
20260503030513 7 0 0.0 0.0 0.00 0.00 0.00 60 1009.1
20260503030110 7 0 0.0 0.0 0.00 0.00 0.00 58 1009.2
20260503025511 7 0 0.0 0.0 0.00 0.00 0.00 59 1009.3
20260503024911 7 0 0.0 0.0 0.00 0.00 0.00 59 1009.3
20260503024513 7 0 0.0 0.0 0.00 0.00 0.00 59 1009.3
20260503024310 7 0 0.0 0.0 0.00 0.00 0.00 59 1009.4
20260503023710 7 0 0.0 0.0 0.00 0.00 0.00 59 1009.4
20260503023110 7 0 0.0 0.0 0.00 0.00 0.00 59 1009.5
20260503022510 7 0 0.0 0.0 0.00 0.00 0.00 59 1009.6
20260503021910 8 0 0.0 0.0 0.00 0.00 0.00 59 1009.6
20260503021310 8 0 0.0 0.0 0.00 0.00 0.00 58 1009.5
20260503020710 8 0 0.0 0.0 0.00 0.00 0.00 57 1009.6
20260503020513 8 0 0.0 0.0 0.00 0.00 0.00 56 1009.6
20260503020110 8 0 0.0 0.0 0.00 0.00 0.00 55 1009.6
20260503015510 8 0 0.0 0.0 0.00 0.00 0.00 55 1009.7
20260503014910 8 0 0.0 0.0 0.00 0.00 0.00 55 1009.8
20260503014513 8 0 0.0 0.0 0.00 0.00 0.00 54 1009.8
20260503014310 8 0 0.0 0.0 0.00 0.00 0.00 54 1009.9
20260503013710 8 0 0.0 0.0 0.00 0.00 0.00 55 1009.8
20260503013110 8 0 0.0 0.0 0.00 0.00 0.00 54 1009.9
20260503012510 8 0 0.0 0.0 0.00 0.00 0.00 55 1009.8
20260503011910 8 0 0.0 0.0 0.00 0.00 0.00 55 1009.9
20260503011310 8 0 0.0 0.0 0.00 0.00 0.00 55 1009.9
20260503010710 8 0 0.0 0.0 0.00 0.00 0.00 55 1009.9
20260503010513 8 0 0.0 0.0 0.00 0.00 0.00 56 1010.0
20260503010110 8 0 0.0 0.0 0.00 0.00 0.00 56 1010.0
20260503005510 8 0 0.0 0.0 0.00 0.00 0.00 57 1009.4
20260503004910 8 0 0.0 0.0 0.00 0.00 0.00 57 1010.1
20260503004513 9 0 0.0 0.0 0.00 0.00 0.00 59 1010.2
20260503004310 9 0 0.0 0.0 0.00 0.00 0.00 59 1010.2
20260503003710 10 0 0.0 0.0 0.00 0.00 0.00 56 1010.2
20260503003110 10 0 0.0 0.0 0.00 0.00 0.00 53 1010.2
20260503002510 10 0 0.0 0.0 0.00 0.00 0.00 53 1010.3
20260503001910 10 0 0.0 0.0 0.00 0.00 0.00 55 1010.3
20260503001310 9 0 0.0 0.0 0.00 0.00 0.00 56 1010.3
20260503000710 9 0 0.0 0.0 0.00 0.00 0.00 57 1010.5
20260503000513 9 0 0.0 0.0 0.00 0.00 0.00 58 1010.5
20260503000110 9 0 0.0 0.0 0.00 0.00 0.00 59 1010.6
20260502235510 10 0 0.0 0.0 0.00 0.00 0.00 60 1010.7
20260502234910 10 0 0.0 0.0 0.00 0.00 0.00 62 1010.7
20260502234513 10 0 0.0 0.0 0.00 0.00 0.00 59 1010.7
20260502234310 10 0 0.0 0.0 0.00 0.00 0.00 59 1010.7
20260502233710 10 0 0.0 0.0 0.00 0.00 0.00 59 1010.7
20260502233110 11 0 0.0 0.0 0.00 0.00 0.00 58 1010.8
20260502232510 11 0 0.0 0.0 0.00 0.00 0.00 58 1010.8
20260502231910 11 0 0.0 0.0 0.00 0.00 0.00 55 1010.9
20260502231310 12 0 0.0 0.0 0.00 0.00 0.00 53 1010.8
20260502230710 12 0 0.0 0.0 0.00 0.00 0.00 50 1010.8
20260502230512 12 0 0.0 0.0 0.00 0.00 0.00 49 1011.0
20260502230110 13 0 0.0 0.0 0.00 0.00 0.00 44 1010.9
20260502225510 13 334 0.0 1.6 0.00 0.00 0.00 40 1010.9
20260502224910 13 304 0.0 1.6 0.00 0.00 0.00 42 1011.1
20260502224512 13 317 0.0 1.6 0.00 0.00 0.00 38 1011.1
20260502224310 13 0 0.0 0.0 0.00 0.00 0.00 37 1011.2
20260502223710 13 348 0.0 1.6 0.00 0.00 0.00 38 1011.3
20260502223110 13 9 0.0 1.6 0.00 0.00 0.00 33 1011.5
20260502222510 13 350 0.0 1.6 0.00 0.00 0.00 34 1011.5
20260502221910 13 359 0.0 1.6 0.00 0.00 0.00 32 1011.5
20260502221310 14 350 1.6 3.2 0.00 0.00 0.00 31 1011.7
20260502220710 14 321 0.0 1.6 0.00 0.00 0.00 30 1011.7
20260502220513 14 11 0.0 1.6 0.00 0.00 0.00 27 1011.7
20260502220110 15 354 6.4 11.3 0.00 0.00 0.00 27 1011.6
20260502215510 14 340 0.0 1.6 0.00 0.00 0.00 28 1011.8
20260502214910 13 8 0.0 1.6 0.00 0.00 0.00 28 1011.8
20260502214512 13 356 6.4 11.3 0.00 0.00 0.00 27 1011.9
20260502214309 13 359 8.0 12.9 0.00 0.00 0.00 27 1012.0
20260502213708 14 15 0.0 1.6 0.00 0.00 0.00 27 1011.9
20260502213109 14 358 0.0 1.6 0.00 0.00 0.00 27 1012.0
20260502212508 14 358 1.6 3.2 0.00 0.00 0.00 27 1012.1
20260502211908 14 359 0.0 1.6 0.00 0.00 0.00 27 1012.2
20260502211307 13 2 1.6 8.0 0.00 0.00 0.00 27 1012.4
20260502210707 14 9 1.6 6.4 0.00 0.00 0.00 29 1012.5
20260502210520 14 3 3.2 12.9 0.00 0.00 0.00 28 1012.4
20260502210107 15 4 1.6 3.2 0.00 0.00 0.00 27 1012.5
20260502205507 15 348 0.0 1.6 0.00 0.00 0.00 28 1012.4
20260502204907 15 10 0.0 1.6 0.00 0.00 0.00 27 1012.5
20260502204520 15 349 3.2 9.7 0.00 0.00 0.00 28 1012.6
20260502204316 15 353 0.0 1.6 0.00 0.00 0.00 28 1012.6
20260502203716 15 41 0.0 1.6 0.00 0.00 0.00 27 1012.6
20260502203116 15 10 0.0 1.6 0.00 0.00 0.00 29 1012.7
20260502202516 15 37 0.0 1.6 0.00 0.00 0.00 27 1012.8
20260502201916 14 33 0.0 1.6 0.00 0.00 0.00 30 1012.9
20260502201316 14 345 8.0 11.3 0.00 0.00 0.00 29 1013.1
20260502200716 15 55 0.0 1.6 0.00 0.00 0.00 27 1013.2
20260502200553 15 36 0.0 1.6 0.00 0.00 0.00 28 1013.2
20260502200519 15 36 0.0 1.6 0.00 0.00 0.00 28 1013.2
20260502200115 14 44 0.0 1.6 0.00 0.00 0.00 29 1013.3
20260502195515 13 43 0.0 1.6 0.00 0.00 0.00 28 1013.4
20260502194915 13 1 4.8 9.7 0.00 0.00 0.00 30 1013.5
20260502194518 14 356 8.0 12.9 0.00 0.00 0.00 28 1013.7
20260502194315 14 27 0.0 1.6 0.00 0.00 0.00 29 1013.6
20260502193715 14 49 0.0 1.6 0.00 0.00 0.00 28 1013.7
20260502193115 14 337 0.0 1.6 0.00 0.00 0.00 27 1013.9
20260502192515 13 35 0.0 1.6 0.00 0.00 0.00 27 1014.0
20260502191915 13 359 0.0 1.6 0.00 0.00 0.00 26 1014.0
20260502191315 14 352 0.0 1.6 0.00 0.00 0.00 27 1014.2
20260502190715 15 3 0.0 1.6 0.00 0.00 0.00 27 1014.2
20260502190518 15 24 0.0 1.6 0.00 0.00 0.00 27 1014.2
20260502190115 14 48 0.0 1.6 0.00 0.00 0.00 27 1014.3
20260502185515 13 68 0.0 1.6 0.00 0.00 0.00 27 1014.4
20260502184915 13 355 0.0 1.6 0.00 0.00 0.00 27 1014.5
20260502184519 13 10 0.0 1.6 0.00 0.00 0.00 27 1014.6
20260502184315 13 4 0.0 1.6 0.00 0.00 0.00 27 1014.8
20260502183715 13 356 0.0 1.6 0.00 0.00 0.00 26 1014.7
20260502183115 13 66 0.0 1.6 0.00 0.00 0.00 27 1015.0
20260502182515 13 29 0.0 1.6 0.00 0.00 0.00 28 1015.0
20260502181914 13 353 0.0 1.6 0.00 0.00 0.00 27 1015.1
20260502181313 13 0 0.0 1.6 0.00 0.00 0.00 24 1015.2
20260502180713 13 321 0.0 1.6 0.00 0.00 0.00 27 1015.3
20260502180515 13 299 0.0 1.6 0.00 0.00 0.00 27 1015.2
20260502180113 13 338 0.0 1.6 0.00 0.00 0.00 26 1015.3
20260502170511 12 315 0.0 1.6 0.00 0.00 0.00 26 1016.0
20260502170109 12 298 0.0 1.6 0.00 0.00 0.00 26 1016.1
20260502164309 12 330 0.0 1.6 0.00 0.00 0.00 26 1016.3
20260502163708 12 340 0.0 1.6 0.00 0.00 0.00 26 1016.4
20260502163108 12 329 0.0 1.6 0.00 0.00 0.00 27 1016.6
20260502162507 12 354 0.0 1.6 0.00 0.00 0.00 26 1016.6
20260502161907 12 72 0.0 1.6 0.00 0.00 0.00 28 1016.7
20260502161307 12 319 0.0 1.6 0.00 0.00 0.00 27 1016.8
20260502160707 12 342 0.0 1.6 0.00 0.00 0.00 27 1016.9
20260502160519 12 356 0.0 3.2 0.00 0.00 0.00 26 1016.9
20260502160107 12 342 6.4 9.7 0.00 0.00 0.00 27 1016.9
20260502151917 12 315 0.0 1.6 0.00 0.00 0.00 31 1017.4
20260502151317 12 198 0.0 1.6 0.00 0.00 0.00 33 1017.4
20260502150717 12 271 0.0 1.6 0.00 0.00 0.00 33 1017.5
20260502150521 12 0 0.0 0.0 0.00 0.00 0.00 32 1017.6
20260502150117 12 209 0.0 1.6 0.00 0.00 0.00 34 1017.6
20260502140116 9 236 0.0 1.6 0.00 0.00 0.00 44 1018.1
20260502130716 5 210 0.0 1.6 0.00 0.00 0.00 52 1018.6
20260502130519 5 208 0.0 1.6 0.00 0.00 0.00 53 1018.5
20260502130116 5 214 0.0 1.6 0.00 0.00 0.00 53 1018.5
20260502123716 3 0 0.0 0.0 0.00 0.00 0.00 67 1018.7
20260502123117 2 0 0.0 0.0 0.00 0.00 0.00 69 1018.6
20260502122516 2 0 0.0 0.0 0.00 0.00 0.00 73 1018.7
20260502121916 1 0 0.0 0.0 0.00 0.00 0.00 76 1018.7
20260502121316 1 0 0.0 0.0 0.00 0.00 0.00 79 1018.7
20260502120716 0 0 0.0 0.0 0.00 0.00 0.00 80 1018.7
20260502120518 0 0 0.0 0.0 0.00 0.00 0.00 80 1018.6
20260502120116 0 0 0.0 0.0 0.00 0.00 0.00 82 1018.6
20260502115516 0 0 0.0 0.0 0.00 0.00 0.00 83 1018.6
20260502114916 -1 0 0.0 0.0 0.00 0.00 0.00 85 1018.7
20260502114518 -1 0 0.0 0.0 0.00 0.00 0.00 86 1018.6
20260502114316 -1 0 0.0 0.0 0.00 0.00 0.00 86 1018.7
20260502113716 -2 0 0.0 0.0 0.00 0.00 0.00 87 1018.6
20260502113116 -2 0 0.0 0.0 0.00 0.00 0.00 87 1018.6
20260502112516 -2 0 0.0 0.0 0.00 0.00 0.00 86 1018.5
20260502111915 -3 0 0.0 0.0 0.00 0.00 0.00 85 1018.6
20260502111315 -3 0 0.0 0.0 0.00 0.00 0.00 85 1018.5
20260502110714 -3 0 0.0 0.0 0.00 0.00 0.00 84 1018.4
20260502110623 -3 0 0.0 0.0 0.00 0.00 0.00 85 1018.5
20260502110516 -3 0 0.0 0.0 0.00 0.00 0.00 85 1018.5
20260502110114 -3 0 0.0 0.0 0.00 0.00 0.00 84 1018.5
20260502105514 -3 0 0.0 0.0 0.00 0.00 0.00 84 1018.5
20260502104914 -3 0 0.0 0.0 0.00 0.00 0.00 84 1018.6
20260502104314 -2 0 0.0 0.0 0.00 0.00 0.00 83 1018.6
20260502103714 -2 0 0.0 0.0 0.00 0.00 0.00 83 1018.6
20260502103114 -2 0 0.0 0.0 0.00 0.00 0.00 83 1018.5
20260502102514 -2 0 0.0 0.0 0.00 0.00 0.00 83 1018.5
20260502101914 -2 0 0.0 0.0 0.00 0.00 0.00 83 1018.6
20260502101314 -2 0 0.0 0.0 0.00 0.00 0.00 83 1018.6
20260502100714 -2 0 0.0 0.0 0.00 0.00 0.00 83 1018.5
20260502100516 -2 0 0.0 0.0 0.00 0.00 0.00 83 1018.7
20260502100114 -2 0 0.0 0.0 0.00 0.00 0.00 83 1018.6
20260502091314 -2 0 0.0 0.0 0.00 0.00 0.00 82 1018.6
20260502090714 -2 0 0.0 0.0 0.00 0.00 0.00 82 1018.7
20260502090516 -2 0 0.0 0.0 0.00 0.00 0.00 82 1018.6
20260502090114 -2 0 0.0 0.0 0.00 0.00 0.00 82 1018.7
20260502071313 -1 0 0.0 0.0 0.00 0.00 0.00 79 1019.1
20260502070712 -1 0 0.0 0.0 0.00 0.00 0.00 79 1019.3
20260502070515 -1 0 0.0 0.0 0.00 0.00 0.00 79 1019.2
20260502070112 -1 0 0.0 0.0 0.00 0.00 0.00 79 1019.2
20260502065513 -1 0 0.0 0.0 0.00 0.00 0.00 79 1019.3
20260502064913 -1 0 0.0 0.0 0.00 0.00 0.00 78 1019.2
20260502064515 -1 0 0.0 0.0 0.00 0.00 0.00 78 1019.3
20260502064312 -1 0 0.0 0.0 0.00 0.00 0.00 78 1019.4
20260502063713 -1 0 0.0 0.0 0.00 0.00 0.00 78 1019.4
20260502063111 -1 0 0.0 0.0 0.00 0.00 0.00 77 1019.4
20260502062511 -1 0 0.0 0.0 0.00 0.00 0.00 77 1019.3
20260502061911 -1 0 0.0 0.0 0.00 0.00 0.00 77 1019.4
20260502061311 -1 0 0.0 0.0 0.00 0.00 0.00 77 1019.3
20260502060711 -1 0 0.0 0.0 0.00 0.00 0.00 76 1019.4
20260502060514 -1 0 0.0 0.0 0.00 0.00 0.00 76 1019.4
20260502060111 -1 0 0.0 0.0 0.00 0.00 0.00 76 1019.4
20260502055511 -1 0 0.0 0.0 0.00 0.00 0.00 75 1019.4
20260502054911 -1 0 0.0 0.0 0.00 0.00 0.00 74 1019.5
20260502054516 -1 0 0.0 0.0 0.00 0.00 0.00 74 1019.4
20260502054311 -1 0 0.0 0.0 0.00 0.00 0.00 74 1019.5
20260502053711 -1 0 0.0 0.0 0.00 0.00 0.00 74 1019.5
20260502053111 -1 0 0.0 0.0 0.00 0.00 0.00 74 1019.5
20260502052511 0 0 0.0 0.0 0.00 0.00 0.00 74 1019.5
20260502051911 0 0 0.0 0.0 0.00 0.00 0.00 73 1019.4
20260502051311 0 0 0.0 0.0 0.00 0.00 0.00 73 1019.5
20260502050711 0 0 0.0 0.0 0.00 0.00 0.00 72 1019.5
20260502050514 0 0 0.0 0.0 0.00 0.00 0.00 72 1019.4
20260502050111 0 0 0.0 0.0 0.00 0.00 0.00 72 1019.5
20260502045511 0 0 0.0 0.0 0.00 0.00 0.00 71 1019.7
20260502044911 0 0 0.0 0.0 0.00 0.00 0.00 70 1019.6
20260502044514 0 0 0.0 0.0 0.00 0.00 0.00 70 1019.5
20260502044311 0 0 0.0 0.0 0.00 0.00 0.00 70 1019.5
20260502043711 0 0 0.0 0.0 0.00 0.00 0.00 70 1019.5
20260502043111 0 0 0.0 0.0 0.00 0.00 0.00 68 1019.5
20260502042511 0 0 0.0 0.0 0.00 0.00 0.00 68 1019.5
20260502041911 0 0 0.0 0.0 0.00 0.00 0.00 68 1019.5
20260502041311 0 0 0.0 0.0 0.00 0.00 0.00 67 1019.5
20260502040711 1 0 0.0 0.0 0.00 0.00 0.00 67 1019.6
20260502040514 1 0 0.0 0.0 0.00 0.00 0.00 67 1019.5
20260502040111 1 0 0.0 0.0 0.00 0.00 0.00 66 1019.6
20260502035511 1 0 0.0 0.0 0.00 0.00 0.00 66 1019.7
20260502034911 1 0 0.0 0.0 0.00 0.00 0.00 65 1019.7
20260502034513 1 0 0.0 0.0 0.00 0.00 0.00 65 1019.6
20260502034310 1 0 0.0 0.0 0.00 0.00 0.00 65 1019.6
20260502033710 1 0 0.0 0.0 0.00 0.00 0.00 64 1019.7
20260502033110 2 0 0.0 0.0 0.00 0.00 0.00 63 1019.6
20260502032510 2 0 0.0 0.0 0.00 0.00 0.00 63 1019.6
20260502031910 2 0 0.0 0.0 0.00 0.00 0.00 62 1019.6
20260502031310 2 0 0.0 0.0 0.00 0.00 0.00 61 1019.7